Theta_e
330 327 329 330 330 330 330 330 329 330 329 328 326 327 327 327 327 327 325 324 325 326 326 326 324 324 325 324 326 325 325 325 325 329 330 324 323 324 328 327 330 329 328
331 330 332 331 330 330 330 331 329 329 329 327 327 327 327 327 328 327 326 325 327 326 326 325 325 324 324 323 324 327 326 325 325 327 327 326 326 327 326 327 327 327 327
329 331 331 330 330 330 330 330 329 328 329 328 328 327 327 327 327 328 328 327 327 325 325 326 327 327 326 326 326 327 325 327 325 326 328 326 327 328 325 325 327 324 320
331 330 331 330 330 330 330 329 328 329 329 329 328 328 328 327 328 328 327 327 325 325 326 327 328 328 328 327 327 327 327 327 327 327 327 326 326 326 326 324 321 318 318
331 330 330 330 329 330 329 329 328 329 330 330 328 327 329 329 328 328 327 328 326 327 328 327 327 325 326 326 326 325 324 325 326 327 326 327 325 324 322 322 321 321 322
331 330 329 329 328 328 328 329 329 329 330 330 328 327 327 327 328 328 328 328 327 328 328 328 328 328 327 326 327 328 327 325 326 326 324 325 323 323 324 323 322 322 321
332 330 330 329 327 328 328 328 329 328 330 330 329 328 327 327 328 326 326 327 326 326 327 328 328 329 329 329 328 327 327 326 326 326 325 325 324 325 323 322 323 323 323
331 331 330 328 327 327 329 328 329 329 329 328 327 328 329 329 326 327 327 327 326 328 328 328 328 328 328 328 326 326 325 325 325 325 325 325 325 323 323 323 323 323 322
332 330 330 328 327 327 328 328 329 329 328 328 328 328 327 325 324 326 327 327 327 327 328 327 326 327 327 327 326 324 324 324 325 325 325 324 323 324 324 324 323 322 320
332 331 330 328 328 327 327 326 328 328 327 328 327 326 326 324 326 328 327 327 326 326 326 325 326 326 327 325 325 324 324 324 324 323 323 323 324 324 323 323 322 323 323
330 331 331 329 328 328 327 325 327 327 327 328 326 326 326 326 327 327 327 326 326 326 326 326 326 327 327 325 325 324 324 324 324 323 324 324 323 323 323 323 323 323 319
330 331 331 330 329 328 327 325 327 328 327 326 326 325 325 326 326 325 326 326 326 325 324 324 325 326 327 326 325 324 324 324 324 324 323 323 323 323 322 320 319 318 318
329 330 330 330 329 329 327 324 327 329 327 326 326 325 325 326 327 325 326 326 325 325 326 325 325 326 326 326 325 325 324 325 324 324 324 323 323 322 321 319 320 322 320
328 330 330 330 329 329 327 324 328 329 328 326 326 326 327 327 325 325 325 326 325 326 326 325 325 325 325 326 326 325 325 325 325 323 323 321 321 319 316 320 323 323 324
327 330 329 330 331 331 329 318 329 327 327 327 325 325 325 324 325 325 325 326 325 325 326 325 325 325 325 326 325 325 325 326 325 325 324 324 323 319 318 320 322 323 323
327 329 329 330 331 331 331 320 328 329 329 328 327 326 325 324 325 325 326 325 324 325 325 325 324 325 325 325 325 324 324 324 325 325 324 324 324 324 324 324 323 322 320
326 328 328 329 331 331 332 320 323 326 328 330 330 330 327 324 325 324 324 323 323 323 324 325 325 325 324 325 325 325 324 323 323 324 323 322 323 323 324 323 320 320 320
325 326 327 328 329 329 331 327 322 324 325 326 330 331 330 326 324 325 323 322 322 321 321 321 321 322 321 323 323 323 323 324 324 323 323 323 322 320 317 317 320 321 321
325 326 326 326 327 327 328 332 326 326 326 323 324 331 331 329 325 324 324 323 322 321 320 320 319 319 320 318 319 319 320 322 322 322 322 323 323 324 324 324 323 322 318
326 326 326 325 326 326 328 331 331 330 327 327 324 322 328 331 328 325 324 324 324 323 322 321 320 322 321 318 316 318 321 321 321 322 322 323 324 325 324 323 321 321 319
328 327 327 326 325 326 326 328 332 332 331 329 328 327 323 322 327 329 329 325 324 324 325 324 323 323 323 324 325 325 322 320 318 319 321 321 321 322 322 321 321 322 321
330 328 327 327 326 326 326 327 328 329 330 331 331 330 328 326 322 319 321 324 326 325 324 324 325 325 324 324 325 326 328 326 324 323 322 322 323 323 323 323 322 322 322
331 329 328 327 327 326 326 326 328 327 327 328 328 329 330 329 327 325 322 317 316 316 321 324 324 324 324 326 326 326 329 329 330 328 324 323 322 322 322 322 321 322 322
329 330 329 328 327 327 326 326 327 328 327 326 327 326 326 327 328 326 324 323 322 318 314 312 314 320 322 322 323 326 329 329 327 327 327 326 325 324 323 322 321 321 322
330 329 329 328 328 328 327 327 328 328 328 327 326 326 326 325 325 325 324 324 323 323 322 320 316 312 310 311 316 319 322 325 328 327 325 324 323 323 323 323 322 322 322
332 332 331 330 330 328 328 328 327 329 329 328 328 327 326 326 325 325 324 324 323 323 323 323 323 322 321 319 314 311 312 315 317 320 321 321 321 320 320 321 321 322 322
Wind_Speed
15 10 11 8 5 5 5 5 6 6 6 5 6 8 10 8 6 3 5 4 3 4 6 9 11 11 11 9 9 19 18 20 15 17 19 19 14 14 19 16 29 36 33
11 15 8 8 4 5 5 7 5 6 7 9 10 9 7 5 2 3 5 3 4 4 5 3 7 14 13 13 12 18 18 19 19 23 18 20 16 16 27 27 30 34 39
13 15 10 6 4 6 6 6 6 9 11 11 11 8 8 6 5 4 4 3 3 4 6 5 6 9 12 13 12 17 18 20 20 22 24 22 29 34 31 29 35 38 36
17 14 10 3 2 7 6 5 6 11 12 10 9 7 6 5 4 4 4 4 6 8 7 7 9 9 12 14 13 14 17 20 21 28 26 23 36 35 30 43 46 38 36
18 14 10 5 3 7 6 6 7 11 13 11 10 8 8 6 5 4 5 5 7 6 6 8 8 10 11 11 11 12 17 22 28 31 29 33 35 39 45 47 37 38 36
20 15 11 7 7 5 6 7 7 10 14 13 13 9 7 5 4 3 5 7 6 5 6 8 9 9 10 12 11 12 13 23 29 35 34 36 41 46 44 39 43 44 38
21 16 11 8 7 4 4 9 9 10 14 13 12 9 9 8 5 4 7 6 6 6 8 7 6 7 9 8 9 7 12 24 29 34 37 39 44 41 41 44 40 37 33
20 17 12 10 10 7 4 7 9 11 13 13 11 10 10 9 8 8 10 7 7 6 6 4 6 9 8 8 11 11 14 19 23 30 32 37 36 41 42 40 38 31 25
21 18 16 14 11 11 5 7 11 12 13 13 11 10 9 11 10 7 10 10 8 6 6 5 4 8 9 11 17 18 16 23 24 23 32 35 38 42 36 34 32 25 25
23 20 17 13 12 13 7 8 12 12 12 13 12 11 10 12 10 10 10 11 9 8 8 8 7 6 9 13 21 23 23 21 23 27 30 35 38 31 28 27 22 20 22
23 21 20 17 14 13 8 10 13 12 13 13 10 11 14 12 10 8 9 8 7 8 9 10 12 11 11 13 25 25 25 25 27 30 36 39 33 24 20 20 16 17 19
24 23 21 19 18 13 7 11 11 12 13 13 12 14 13 11 7 5 7 5 9 8 13 13 15 15 13 15 24 26 26 26 29 30 30 27 23 21 20 18 17 16 11
25 25 20 20 19 13 9 11 11 15 17 14 14 15 13 11 10 8 9 12 11 13 15 15 19 17 18 18 23 27 27 26 28 27 26 27 27 23 21 22 19 13 12
27 27 23 21 20 14 8 10 8 14 18 18 17 15 14 12 11 12 14 18 16 16 16 19 19 19 22 22 24 25 28 22 22 26 26 24 24 23 21 20 17 13 11
28 29 26 24 21 16 11 12 8 8 11 14 16 13 12 11 12 10 18 21 19 17 19 19 20 22 22 24 27 28 27 25 25 24 26 24 24 24 21 18 15 13 13
31 32 30 27 23 18 14 16 14 9 7 7 7 7 9 9 12 15 20 19 19 17 18 20 20 22 24 26 27 27 27 28 27 25 26 27 22 21 19 18 17 17 17
32 35 32 29 26 22 18 18 19 16 12 9 8 6 9 12 16 17 19 17 17 19 19 18 18 19 22 24 25 24 24 24 23 24 26 27 22 19 17 18 18 19 20
33 32 32 31 28 24 21 18 20 17 16 15 14 12 9 15 18 18 19 20 21 20 20 19 18 19 19 20 21 22 21 21 22 22 23 22 21 20 20 20 20 21 21
36 34 33 32 30 25 22 22 21 20 20 17 17 17 15 14 22 23 23 24 24 24 23 21 19 19 21 22 22 21 21 22 22 22 22 22 22 22 23 22 22 23 23
36 35 35 34 31 28 26 25 25 25 24 23 21 20 22 21 24 30 29 28 27 25 25 26 25 23 22 23 24 24 23 22 23 24 25 25 24 25 25 25 25 26 26
36 36 35 34 33 30 28 30 28 27 29 28 26 24 24 26 27 28 29 31 31 29 27 27 28 28 27 27 26 27 27 27 28 28 28 27 28 30 28 27 27 27 27
40 36 37 37 34 33 31 31 32 31 30 29 28 27 27 30 31 31 31 31 31 31 30 30 30 31 31 31 31 30 30 31 32 33 31 30 30 30 30 31 30 30 29
43 43 39 39 37 34 33 32 33 34 34 32 30 29 31 32 31 32 33 34 34 33 32 33 34 35 35 35 36 37 36 32 34 35 34 32 33 34 34 34 34 34 34
33 40 42 40 40 39 36 35 34 35 35 35 35 33 30 32 34 30 28 28 29 32 35 35 35 35 35 37 38 41 42 38 32 31 34 37 35 34 34 35 36 34 34
11 23 36 43 43 39 36 36 37 36 35 36 37 37 35 33 34 32 30 29 28 29 29 30 33 36 37 37 38 38 40 43 43 40 37 35 36 36 36 37 37 37 36
6 7 17 29 35 39 39 37 39 38 37 35 36 38 37 36 35 34 33 33 32 30 29 30 31 31 30 33 38 40 40 40 39 38 38 38 39 39 40 40 39 38 36
Wind_Direction
170 170 155 154 188 240 235 203 191 200 183 168 173 172 172 174 164 177 214 227 223 210 223 227 222 211 214 200 202 185 186 193 189 167 164 161 149 163 176 156 159 172 176
161 161 157 185 203 228 201 188 190 188 166 146 135 143 151 163 185 216 214 204 222 250 202 210 211 211 205 205 205 188 192 194 185 158 160 162 161 156 161 152 154 168 174
165 159 178 181 247 188 176 170 182 176 158 149 155 163 173 170 207 227 219 190 159 153 152 141 160 171 186 192 183 178 186 188 202 170 158 163 161 160 154 159 163 158 148
160 165 167 183 168 187 176 168 176 176 169 158 148 155 178 184 210 199 177 157 161 162 142 126 127 131 132 155 163 175 179 181 178 166 160 158 161 159 164 159 142 140 150
170 173 172 172 165 175 179 168 169 179 176 165 156 159 172 194 179 174 174 154 142 161 158 146 134 148 146 162 163 170 182 179 173 165 163 167 164 159 154 150 145 151 155
175 177 184 179 150 132 170 177 172 175 176 175 171 174 171 189 199 195 186 173 169 178 160 156 178 188 191 189 207 203 203 188 176 166 168 170 161 157 162 160 155 156 148
185 182 189 169 171 157 134 183 185 179 178 181 178 191 193 206 216 192 167 165 180 177 160 158 178 164 180 186 161 170 201 192 191 182 174 177 173 176 166 159 158 163 162
194 189 188 175 183 194 191 189 185 172 183 177 189 203 209 219 192 186 161 159 160 151 142 130 140 144 144 151 143 151 173 178 184 184 184 182 185 167 162 160 164 166 169
191 185 188 182 192 196 206 193 186 181 187 188 192 204 202 195 186 198 165 164 167 162 159 134 130 142 140 153 147 140 156 164 174 178 183 177 171 158 163 162 167 172 163
190 185 190 192 208 197 200 188 187 195 193 190 189 199 199 193 178 166 172 176 180 183 176 174 172 156 134 153 150 142 138 156 165 158 161 159 155 161 172 176 172 173 166
190 196 192 201 207 196 194 184 191 196 192 185 190 175 178 177 174 186 200 200 194 172 178 177 163 164 141 143 156 150 139 145 150 156 156 159 164 165 169 177 183 174 163
192 195 195 203 196 194 203 180 188 191 179 184 185 173 169 171 191 186 169 159 133 138 133 137 147 163 178 152 156 154 147 150 155 156 161 165 160 157 159 160 156 161 168
192 194 200 202 197 199 204 189 183 187 185 187 187 181 181 185 190 183 156 144 137 138 135 134 138 133 150 145 148 163 161 155 157 158 158 161 164 162 160 161 153 162 182
195 196 199 202 195 196 197 195 191 191 193 189 191 182 182 186 180 168 157 155 146 145 136 134 131 134 137 144 152 163 176 180 162 163 165 158 165 173 174 177 175 180 189
199 198 199 199 201 195 197 197 176 176 179 181 190 194 190 179 170 172 166 159 154 149 141 141 139 144 144 151 157 166 170 178 182 177 179 170 175 181 186 191 201 215 224
201 199 201 199 199 203 205 195 186 175 152 174 188 195 182 170 157 147 155 163 157 158 153 147 148 153 152 154 161 167 173 182 187 185 182 184 185 190 197 207 217 228 238
205 203 204 204 203 203 207 201 193 191 199 199 191 166 183 181 172 167 163 171 171 170 172 163 161 159 155 156 162 162 165 168 169 179 187 196 207 215 217 227 233 239 246
207 212 211 209 210 210 210 205 201 197 203 204 204 200 191 194 189 182 182 179 183 183 185 187 182 180 177 173 170 170 173 181 190 195 201 209 217 223 228 233 238 245 253
208 213 215 217 218 219 215 208 207 211 217 212 203 202 203 197 196 198 201 203 199 195 193 195 194 194 194 193 192 190 190 196 203 207 213 219 223 227 234 242 250 257 263
214 215 218 219 219 218 218 215 214 217 220 222 219 212 203 202 200 204 210 213 216 216 208 205 203 201 199 203 208 211 213 218 221 226 230 232 235 238 246 254 260 261 263
213 214 220 221 220 220 223 222 221 222 226 229 232 230 226 222 217 217 218 221 224 225 223 220 216 215 213 211 215 222 224 227 230 234 237 240 243 246 252 257 261 264 267
220 215 216 221 221 218 220 223 224 228 229 230 232 234 235 235 236 235 233 233 233 232 231 229 227 225 224 224 222 226 236 237 240 239 241 244 248 251 255 259 264 265 267
223 227 219 221 224 223 224 223 227 230 233 236 236 237 237 235 239 242 244 244 243 241 239 237 234 232 230 229 229 231 235 242 246 244 246 249 252 254 256 259 263 265 266
221 228 229 227 228 229 228 229 229 233 236 238 241 241 239 242 244 246 247 245 245 246 245 244 243 240 238 236 234 232 235 240 241 245 245 249 253 256 259 262 263 265 266
215 230 231 231 229 231 233 235 237 236 239 242 244 247 248 246 247 251 253 252 252 249 248 248 248 248 247 245 241 240 240 240 241 242 245 248 250 254 257 259 261 262 263
121 85 221 229 237 239 240 240 241 241 240 241 245 248 252 255 254 254 256 256 257 257 257 256 256 256 256 257 253 250 245 243 241 241 242 247 252 255 257 258 260 261 261